User: anonymous   Login
Location: NJAA Observatory
(40.6819°N, 74.8979°W)
Time: 03:49:26
(UTC-05:00)
Language:

Landsat 5 - Orbit

View from above orbital plane
View from above orbital plane
View from above satellite
View from above satellite

Ground track
Ground track

The orbit data is extracted from the following two-line orbital elements,

1 14780U 84021A   14329.43896988  .00002805  00000-0  27832-3 0  4950
2 14780 098.0435 049.4557 0094652 004.9417 123.1492 14.89326897636617
Epoch (UTC): 25 November 2014 10:32:06
Eccentricity: 0.0094652
inclination: 98.0435°
perigee height: 534 km
apogee height: 666 km
right ascension of ascending node: 49.4557°
argument of perigee: 4.9417°
revolutions per day: 14.89326897
mean anomaly at epoch: 123.1492°
orbit number at epoch: 63661

The dashed part of the orbit path shows where the satellite is in the earth's shadow,  

DLR